TimeMST,TemperatureF,Dew PointF,Humidity,Sea Level PressureIn,VisibilityMPH,Wind Direction,Wind SpeedMPH,Gust SpeedMPH,PrecipitationIn,Events,Conditions,WindDirDegrees,DateUTC
12:53 AM,39.0,30.0,70,30.02,10.0,SW,15.0,-,N/A,,Clear,230,2012-11-19 07:53:00
1:53 AM,35.1,28.0,76,30.05,10.0,West,11.5,-,N/A,,Clear,260,2012-11-19 08:53:00
2:53 AM,37.9,30.0,73,30.05,10.0,SW,13.8,-,N/A,,Clear,230,2012-11-19 09:53:00
3:53 AM,35.1,28.9,78,30.08,10.0,WSW,6.9,-,N/A,,Clear,240,2012-11-19 10:53:00
4:53 AM,33.1,28.0,82,30.11,10.0,West,9.2,-,N/A,,Clear,280,2012-11-19 11:53:00
5:53 AM,36.0,30.0,79,30.10,10.0,WSW,11.5,-,N/A,,Clear,240,2012-11-19 12:53:00
6:53 AM,37.9,30.0,73,30.10,10.0,SW,16.1,-,N/A,,Clear,230,2012-11-19 13:53:00
7:53 AM,37.0,28.9,73,30.13,10.0,WSW,12.7,-,N/A,,Clear,250,2012-11-19 14:53:00
8:53 AM,44.1,30.0,58,30.13,10.0,SW,18.4,26.5,N/A,,Clear,230,2012-11-19 15:53:00
9:53 AM,48.0,30.0,50,30.12,10.0,SW,24.2,32.2,N/A,,Clear,230,2012-11-19 16:53:00
10:53 AM,52.0,30.0,43,30.11,10.0,WSW,26.5,36.8,N/A,,Clear,240,2012-11-19 17:53:00
11:53 AM,53.1,28.0,38,30.09,10.0,WSW,23.0,34.5,N/A,,Clear,250,2012-11-19 18:53:00
12:53 PM,55.9,28.0,34,30.07,10.0,WSW,29.9,39.1,N/A,,Clear,250,2012-11-19 19:53:00
1:53 PM,55.0,27.0,34,30.10,10.0,WSW,20.7,33.4,N/A,,Clear,240,2012-11-19 20:53:00
2:53 PM,54.0,27.0,35,30.09,10.0,WSW,19.6,32.2,N/A,,Clear,240,2012-11-19 21:53:00
3:53 PM,51.1,27.0,39,30.11,10.0,WSW,20.7,29.9,N/A,,Clear,240,2012-11-19 22:53:00
4:53 PM,48.0,26.1,42,30.13,10.0,WSW,19.6,-,N/A,,Clear,240,2012-11-19 23:53:00
5:53 PM,46.0,27.0,47,30.14,10.0,WSW,13.8,-,N/A,,Clear,240,2012-11-20 00:53:00
6:53 PM,46.0,28.0,50,30.12,10.0,SW,19.6,32.2,N/A,,Clear,230,2012-11-20 01:53:00
7:53 PM,43.0,28.0,56,30.15,10.0,WSW,11.5,-,N/A,,Clear,240,2012-11-20 02:53:00
8:53 PM,41.0,28.0,60,30.12,10.0,SW,11.5,-,N/A,,Clear,230,2012-11-20 03:53:00
9:53 PM,41.0,28.0,60,30.09,10.0,SW,20.7,-,N/A,,Clear,220,2012-11-20 04:53:00
10:53 PM,43.0,28.0,56,30.08,10.0,SSW,18.4,-,N/A,,Clear,210,2012-11-20 05:53:00
11:53 PM,41.0,26.1,55,30.10,10.0,North,-9999.0,-,N/A,,Clear,0,2012-11-20 06:53:00